Preview of NWS' New Version of Forecast
This preview is not operational and should not be used for support decisions.

Regional Weather Roundup (RWR)

Issued by National Weather Service (NWS)

                            
000
ASUS45 KCYS 190810
RWRWY 

WYOMING REGIONAL WEATHER ROUNDUP
NATIONAL WEATHER SERVICE CHEYENNE WY
100 AM MST TUE FEB 19 2019

NOTE:  "FAIR" INDICATES FEW OR NO CLOUDS BELOW 12,000 FEET
WITH NO SIGNIFICANT WEATHER AND/OR OBSTRUCTIONS TO VISIBILITY.

WYZ001-190900-
YELLOWSTONE NATIONAL PARK
  
CITY           SKY/WX    TMP DP  RH WIND       PRES   REMARKS
LK YELLOWSTONE   N/A      3  -1  83 CALM      29.83S                  
W YELLOWSTONE  NOT AVBL                                               

$$
WYZ002>013-054>058-071-098>099-190900-
NORTHERN WYOMING
  
CITY           SKY/WX    TMP DP  RH WIND       PRES   REMARKS
JACKSON        FLURRIES  -4  -7  87 N8        29.90S WCI -19          
CODY           FAIR      -1  -5  82 S6        30.01F WCI -13          
GREYBULL       CLOUDY     7   0  73 NW3       30.09S                  
WORLAND        CLOUDY     7   3  84 E3        30.06F                  
SHERIDAN       FAIR      -5  -9  83 N5        30.09F WCI -16          
BUFFALO        FAIR       0  -6  76 W3        29.98F                  
GILLETTE       FAIR       1  -4  79 S17       30.06S WCI -19          
HULETT         FAIR      -2  -8  78 MISG      30.10                   
NEWCASTLE        N/A     10   3  72 E10       30.11  WCI  -3          

$$
WYZ014>020-022>026-101>103-190900-
CENTRAL WYOMING
  
CITY           SKY/WX    TMP DP  RH WIND       PRES   REMARKS
BIG PINEY      FAIR     -19 -24  77 SE3       29.87F                  
PINEDALE       FAIR     -20 -26  76 NW7       29.87  WCI -37          
DUBOIS         FAIR      -4  -8  84 NW6       29.83  WCI -16          
LANDER         CLOUDY    11   3  70 SW7       29.93F WCI   0          
RIVERTON       CLOUDY    10   3  73 N6        29.95S WCI   0          
CASPER         CLOUDY     2  -1  88 NW5       29.96F WCI  -8          
DOUGLAS        CLOUDY    11   8  88 SE14      29.99F WCI  -5          

$$
WYZ021-027>030-104>119-190900-
SOUTHERN WYOMING
  
CITY           SKY/WX    TMP DP  RH WIND       PRES   REMARKS
EVANSTON       CLOUDY   N/A N/A N/A CALM      29.87S                  
KEMMERER       FAIR       0  -4  85 NW8       29.85  WCI -15          
FORT BRIDGER   CLOUDY     5   1  85 NE12      29.89F WCI -11          
ROCK SPRINGS   FAIR      -1  -4  87 SW6       29.88S WCI -13          
DIXON          LGT SNOW   8   4  83 W5        29.88R VSB 1   WCI  -1  
RAWLINS        LGT SNOW   7   3  84 N7        29.84S FOG     WCI  -5  
SARATOGA       LGT SNOW  10  10 100 NW6       29.81F WCI   1          
LARAMIE        LGT SNOW   7   4  87 SE14      29.76F FOG     WCI -10  
CHEYENNE       CLOUDY     6   4  91 S15       29.91S WCI -12          
TORRINGTON     CLOUDY     9   6  88 E13       30.06F WCI  -7          
PINE BLUFFS    FLURRIES   9   5  85 SE9       30.02S WCI  -5          

$$